Airfield :
LOGIN :

Register | Disclaimer

   EN    FR    IT 

 










Legend :    VFR   Marginal VFR   IFR   Intensive IFR   Very Intensive IFR
Visi :
Ceiling :
>= 8 km
>= 3000ft
5 to 8 km
1000 to 3000 ft
1500m to 5 km
500 to 1000 ft
800 to 1500m
200 to 500 ft
< 800m
< 200 ft
Symbols :   Thunderstorms  Fog  Heavy snow  Heavy precipitations  Wind > 20 kt
SIGMETs :     Misc.  Thunderstorms  Icing  Turbulence  Mountain Waves  Volcanic Ashes






- Airport Elevation : 2936 ft


LECH - Calamocha

CURRENT METAR :
  • 071830Z AUTO 10003KT CAVOK 18/16 Q1021

EXPIRED METARs :
  • 071800Z AUTO 08004KT 9999 FEW019 18/16 Q1020
  • 071730Z AUTO 09006KT 9999 FEW024 19/16 Q1020
  • 071700Z AUTO 07008KT CAVOK 19/16 Q1020
  • 071630Z AUTO 05009KT 010V080 CAVOK 20/16 Q1020
  • 071600Z AUTO 06009KT 9999 SCT019 SCT026 20/16 Q1020

Expired Forecast.



MET'MAP, your aeronautical weather chart ! - Copyright ORBIFLY December 2007 - Disclaimer

ORBIFLY MET'MAP TEAM :

Programming & Development : Alexandra Zaïnal
Original concept : Baudouin d'Aumeries
Technical & hardware support : Manuel Goepfert
Assistance : Marc-Olivier Méhu




SOURCES & CREDITS :

   NOAA